This demonstration page uses our WeatherBlox Daily Observations layout. Learn more.

Left ArrowRight Arrow

Hourly Observations for December 23, 2019

Temp ( °F °C ) Dew Point ( °F °C ) Humidity (%) Winds ( mph kmh ) Pressure ( in mb ) Visibility ( mi km ) Precip ( " mm )
12:04 am 00:04 Mostly Clear 26 -3.3 24 -4.4 92 92 E 12 19 29.89 1012 10 16 0.00 0.00
12:17 am 00:17 Mostly Cloudy 26 -3.3 25 -3.9 96 96 E 15 24 29.89 1012 10 16 0.00 0.00
12:42 am 00:42 Cloudy 27 -3 25 -4 93 93 E 16 26 29.90 1013 10 16 0.00 0.00
12:53 am 00:53 Cloudy 27 -2.8 25 -3.9 92 92 E 14 22 29.84 1010 10 16 0.00 0.00
1:35 am 01:35 Partly Cloudy 26 -3.3 25 -3.9 96 96 E 13 20 29.89 1012 10 16 0.00 0.00
1:49 am 01:49 Mostly Cloudy 27 -3 25 -4 93 93 E 12 19 29.90 1013 7 11 0.00 0.00
1:53 am 01:53 Mostly Cloudy 26 -3.3 25 -3.9 96 96 E 10 17 29.84 1010 7 11 0.00 0.00
2:12 am 02:12 Mostly Cloudy 26 -3.3 24 -4.4 92 92 E 13 20 29.92 1013 9 14 0.00 0.00
2:53 am 02:53 Cloudy 26 -3.3 24 -4.4 92 92 ENE 7 11 29.85 1011 10 16 0.00 0.00
3:53 am 03:53 Mostly Cloudy 26 -3.3 23 -5 88 88 SSW 3 6 29.86 1011 9 14 0.00 0.00
4:42 am 04:42 Cloudy with Mist and Fog 27 -3 25 -4 93 93 SW 3 6 29.91 1013 6 10 0.00 0.00
4:53 am 04:53 Cloudy with Mist and Fog 26 -3.3 24 -4.4 92 92 SSW 3 6 29.85 1011 6 10 0.00 0.00
5:53 am 05:53 Mostly Cloudy with Mist and Fog 25 -3.9 24 -4.4 96 96 WSW 6 9 29.87 1012 6 10 0.00 0.00
6:01 am 06:01 Partly Cloudy 25 -3.9 24 -4.4 96 96 SW 7 11 29.93 1014 7 11 0.00 0.00
6:53 am 06:53 Mostly Cloudy 24 -4.4 22 -5.6 91 91 SW 7 11 29.88 1012 7 11 0.00 0.00
7:53 am 07:53 Cloudy with Mist and Fog 26 -3.3 24 -4.4 92 92 WSW 3 6 29.88 1012 6 10 0.00 0.00
8:53 am 08:53 Cloudy with Mist and Fog 27 -2.8 26 -3.3 96 96 W 5 7 29.90 1012 4 6 0.00 0.00
9:53 am 09:53 Cloudy with Mist and Fog 28 -2.2 26 -3.3 92 92 W 5 7 29.91 1013 5 8 0.00 0.00
10:53 am 10:53 Cloudy with Mist and Fog 28 -2.2 26 -3.3 92 92 W 3 6 29.89 1012 6 10 0.00 0.00
11:53 am 11:53 Cloudy 29 -1.7 26 -3.3 89 89 Calm 29.88 1012 8 13 0.00 0.00
12:43 pm 12:43 Cloudy 29 -1.7 27 -2.8 92 92 SW 3 6 29.91 1013 10 16 0.00 0.00
12:53 pm 12:53 Cloudy 29 -1.7 26 -3.3 89 89 WSW 5 7 29.88 1012 10 16 0.00 0.00
1:51 pm 13:51 Cloudy 28 -2 27 -3 93 93 SW 3 6 29.92 1013 9 14 0.00 0.00
1:53 pm 13:53 Cloudy 29 -1.7 27 -2.8 92 92 WSW 5 7 29.89 1012 9 14 0.00 0.00
2:53 pm 14:53 Cloudy 29 -1.7 28 -2.2 96 96 W 3 6 29.90 1012 9 14 0.00 0.00
3:29 pm 15:29 Cloudy 30 -1.1 28 -2.2 92 92 Calm 29.92 1013 10 16 0.00 0.00
3:53 pm 15:53 Cloudy 30 -1.1 28 -2.2 92 92 Calm 29.91 1013 10 16 0.00 0.00
4:53 pm 16:53 Cloudy 30 -1.1 28 -2.2 92 92 WNW 5 7 29.93 1013 10 16 0.00 0.00
5:26 pm 17:26 Cloudy 30 -1 28 -2 93 93 NW 5 7 29.95 1014 8 13 0.00 0.00
5:53 pm 17:53 Cloudy 29 -1.7 28 -2.2 96 96 NW 6 9 29.94 1014 9 14 0.00 0.00
6:28 pm 18:28 Cloudy 29 -1.7 27 -2.8 92 92 WNW 5 7 29.97 1015 9 14 0.00 0.00
6:53 pm 18:53 Cloudy 29 -1.7 27 -2.8 92 92 NW 9 15 29.94 1014 8 13 0.00 0.00
7:53 pm 19:53 Cloudy with Mist and Fog 27 -2.8 26 -3.3 96 96 NW 3 6 29.96 1015 5 8 0.00 0.00
8:53 pm 20:53 Cloudy 27 -2.8 26 -3.3 96 96 NNW 5 7 29.96 1015 7 11 0.00 0.00
9:53 pm 21:53 Cloudy 27 -2.8 26 -3.3 96 96 Calm 29.96 1015 7 11 0.00 0.00
10:53 pm 22:53 Cloudy with Mist and Fog 28 -2.2 27 -2.8 96 96 Calm 29.94 1014 6 10 0.00 0.00
11:21 pm 23:21 Cloudy with Mist and Fog 27 -2.8 27 -2.8 100 100 Calm 29.99 1016 2 3 0.00 0.00
11:50 pm 23:50 Cloudy with Mist and Fog 28 -2 27 -3 93 93 Calm 29.97 1015 2 2 0.00 0.00
11:53 pm 23:53 Cloudy with Mist and Fog 28 -2.2 26 -3.3 92 92 Calm 29.93 1014 1 2 0.00 0.00

Powered by AerisWeather